www.pogodaiklimat.ru

Погода и климат >> Архив погоды >> Нигер >> Бильма


ПОГОДА в Бильме

  • Прогноз погоды в Бильме
  • Монитор погоды в Бильме

АРХИВ ПОГОДЫ в Бильме

Время (UTC), дата Ветер
(напр.,м/с)
 
Видим.   Явления Облачность Т
(С)
Тd
(С)
f
(%)
Тe
(С)
Тes
(С)
Комфортность P
(гПа)
Po
(гПа)
Тmin
(С)
Tmax
(С)
R
(мм)
R24
(мм)
S
(см)
03 11.06 штиль 0 10 км 6/0
[Ci sp]
+31.0 +11.7 31 +31 +31 жарко 1005.7 967.2
06 11.06 штиль 0 6000 м пыль 6/0
[Ci sp]
+27.5 +15.3 47 +30 +33 жарко 1008.1 969.1 +25.5
09 11.06 штиль 0 8000 м пыль 6/0
[Ci sp]
+37.0 +16.3 29 +39 +59 опасность
солнечного
удара
1007.8 969.3
12 11.06 В 4 10 км 6/0
[Ci sp]
+41.2 +9.2 15 +39 +52 опасность
солнечного
удара
1006.9 968.5
15 11.06 Ю 4 10 км 6/0
[Ci sp]
+41.2 +9.2 15 +39 +44 очень
жарко
1005.3 966.8
18 11.06 ЮВ 2 10 км 6/0
[Ci sp]
+38.0 +9.4 18 +36 +36 очень
жарко
1005.5 966.7 +42.5
21 11.06 штиль 0 10 км 6/0
[Ci sp]
+29.5 +10.7 31 +30 +30 жарко 1007.4 968.5
03 12.06 В 6 10 км 6/0
[Ci sp]
+31.0 +16.1 41 +34 +34 душно 1007.4 968.9
06 12.06 В 4 8000 м пыль 8/0
[Ac trans Ci sp]
+31.0 +17.3 44 +35 +36 очень
душно
1009.1 970.3 +27.2
09 12.06 ЮВ 4 8000 м пыль 6/0
[Ci sp]
+37.0 +17.4 32 +40 +50 очень
душно
1010.3 971.3
12 12.06 ЮВ 6 10 км 6/0
[Ac trans Ci sp]
+41.0 +17.6 26 +44 +51 опасность
перегрева
1008.7 970.0
15 12.06 В 4 10 км 8/3 1200 м
[Cu hum Ci sp]
+41.0 +17.4 25 +43 +47 опасность
перегрева
1006.9 968.4
18 12.06 В 4 10 км 9/0
[Ac As Ci sp]
+38.5 +17.5 29 +41 +41 опасность
перегрева
1007.3 968.6 +42.8
21 12.06 В 4 10 км 9/0
[Ac As Ci sp]
+37.5 +17.2 30 +40 +40 очень
душно
1009.0 970.2
03 13.06 штиль 0 10 км 6/0
[Ci sp]
+30.0 +17.8 48 +34 +34 очень
душно
1008.9 970.2
06 13.06 штиль 0 10 км 9/0
[Ac trans Ci sp]
+31.0 +19.0 49 +36 +38 очень
душно
1010.5 971.7 +29.8
09 13.06 В 2 10 км 6/0
[Ac trans Ci sp]
+40.5 +17.3 26 +43 +57 опасность
перегрева
1010.4 972.1
12 13.06 В 6 10 км 9/4 1200 м
[Cu hum Ci sp]
+43.0 +12.8 17 +43 +47 опасность
перегрева
1008.8 970.5
15 13.06 штиль 0 10 км 8/0
[Ac trans Ci sp]
+43.0 +13.5 18 +43 +51 опасность
перегрева
1007.5 969.0
18 13.06 В 2 10 км 8/0
[Ac trans Ci sp]
+39.0 +9.9 17 +37 +37 очень
жарко
1007.9 969.2 +44.5
21 13.06 штиль 0 10 км 6/0
[Ac trans Ci sp]
+32.8 +11.5 27 +33 +33 жарко 1009.0 970.4
03 14.06 штиль 0 10 км 6/0
[Ci sp]
+27.0 +10.5 36 +28 +28 жарко 1008.5 969.8
06 14.06 В 2 10 км 6/0
[Ci sp]
+30.8 +10.4 28 +31 +33 жарко 1009.5 970.8 +24.0
09 14.06 ЮВ 10 10 км 6/0
[Ci sp]
+40.0 +8.9 15 +38 +39 очень
жарко
1010.8 972.2
12 14.06 ЮВ 10 10 км 6/0
[Ci sp]
+42.0 +9.0 14 +40 +41 очень
жарко
1009.5 970.9
15 14.06 ЮВ 2 10 км 6/0
[Ci sp]
+42.4 +9.9 15 +41 +48 опасность
перегрева
1008.1 969.3
18 14.06 ЮВ 2 10 км 6/0
[Ci sp]
+38.0 +7.9 16 +36 +36 очень
жарко
1008.9 970.1 +43.5
21 14.06 штиль 0 10 км 6/0
[Ci sp]
+30.0 +10.0 29 +30 +30 жарко 1010.1 971.3
03 15.06 штиль 0 10 км 6/0
[Ci sp]
+23.5 +7.8 37 +24 +24 комфорт 1009.2 970.2
06 15.06 штиль 0 10 км 6/0
[Ci sp]
+25.0 +9.9 38 +26 +28 жарко 1010.7 971.5 +22.0
09 15.06 В 2 10 км 6/0
[Ci sp]
+37.5 +9.6 19 +36 +51 опасность
солнечного
удара
1011.6 972.6
12 15.06 ЮВ 6 10 км 6/0
[Ci sp]
+42.5 +9.5 14 +41 +48 опасность
перегрева
1009.9 971.1
15 15.06 ЮВ 4 10 км 6/0
[Ci sp]
+42.5 +13.6 18 +42 +47 опасность
перегрева
1008.5 969.5
18 15.06 штиль 0 10 км 6/0
[Ci sp]
+34.5 +14.8 31 +36 +36 душно 1009.0 969.6 +43.0
21 15.06 штиль 0 10 км 6/0
[Ci sp]
+28.5 +10.3 32 +29 +29 жарко 1009.8 970.8
03 16.06 штиль 0 10 км 6/0
[Ci sp]
+21.5 +5.9 36 +22 +22 комфорт 1008.9 969.8
06 16.06 штиль 0 10 км 6/0
[Ci sp]
+22.5 +8.8 42 +24 +27 комфорт 1010.7 971.1 +20.0
09 16.06 штиль 0 10 км 6/0
[Ci sp]
+37.0 +13.4 24 +37 +57 опасность
солнечного
удара
1010.6 971.6
12 16.06 С 2 10 км 6/0
[Ci sp]
+44.0 +13.8 17 +44 +63 опасность
перегрева
1008.9 970.1
15 16.06 штиль 0 10 км 6/0
[Ci sp]
+44.5 +18.1 22 +48 +57 опасность
перегрева
1006.6 967.9
18 16.06 штиль 0 10 км 6/0
[Ci sp]
+36.5 +15.2 28 +38 +38 очень
душно
1006.5 967.2 +45.5
21 16.06 штиль 0 10 км 6/0
[Ci sp]
+29.9 +10.0 29 +30 +30 жарко 1007.1 968.2
03 17.06 штиль 0 10 км 6/0
[Ci sp]
+23.6 +8.8 39 +24 +24 комфорт 1006.5 967.7
06 17.06 штиль 0 10 км 6/0
[Ci sp]
+24.0 +11.7 46 +26 +28 жарко 1008.3 969.0 +21.5
09 17.06 В 2 10 км 6/0
[Ci sp]
+37.0 +10.4 20 +36 +50 очень
жарко
1008.2 969.4
12 17.06 В 4 10 км 8/0
[Ci sp]
+45.0 +0.7 7 +41 +53 опасность
перегрева
1006.3 967.8
15 17.06 В 6 10 км 6/0
[Ci sp]
+45.4 +8.2 11 +43 +46 опасность
перегрева
1004.7 966.1
18 17.06 штиль 0 10 км 6/0
[Ci sp]
+40.0 +10.4 17 +39 +39 очень
жарко
1005.4 966.4 +46.2

 

Местоположение метеостанции Бильма (Нигер): широта 18.68 долгота 12.92 высота над уровнем моря 357 м.

В архиве по умолчанию представлена погода в Бильме за последнюю неделю. Архивные данные за месяц целиком и за предыдущие месяцы, начиная с января 2011 года, Вы можете получить, выбрав интересующий диапазон дат из раскрывающегося списка и нажав кнопку "Ввод!".


*Определитесь, кто Вы:
робот инопланетянин человек

Внимание! Время в таблицах - всемирное. Для получения местного времени необходимо прибавить поправку, которая равна 1 ч.

Смотрите также архив погоды в соседних городах и на ближайших метеорологических станциях:

Погода в Нгигми (Нигер) (493 км)
Погода в Агадесе (Нигер) (558 км)
Погода в Mao (Чад) (560 км)
Погода в Диффе (Нигер) (585 км)
Погода в Гуре (Нигер) (593 км)
Погода в Бол-Бериме (Чад) (614 км)
Погода в Майне-Сороа (Нигер) (614 км)
Погода в Фая (Чад) (664 км)
Погода в Зиндере (Нигер) (688 км)
Погода в Tinalkoum (Алжир) (715 км)

Пояснения к столбцам:

Ветер - указаны скорость ветра в м/с - средняя за 10 мин, порывы в срок и между сроками (в фигурных скобках) и направление, откуда дует ветер: С - северный, СВ - северо-восточный, В - восточный, ЮВ - юго-восточный, Ю - южный, ЮЗ - юго-западный, З - западный, СЗ - северо-западный.
Видимость - горизонтальная дальность видимости в метрах или километрах. При видимости от 1 до 10 км при отсутствии осадков обычно наблюдается дымка, при ухудшении видимости до 1 км и менее - туман. В сухую погоду видимость может ухудшаться дымом, пылью или мглою.
Явления - указаны атмосферные явления, наблюдавшиеся в срок или в последний час перед сроком; фигурными скобками обозначены явления, наблюдавшиеся между сроками (за 1-3 часа до срока); квадратными скобками обозначены град или гололедные отложения с указанием их диаметра в мм.
Облачность - указаны через наклонную черту общая и нижняя облачность в баллах и высота нижней границы облаков в метрах; квадратными скобками обозначены формы облаков: Ci - перистые, Cs - перисто-слоистые, Cc - перисто-кучевые, Ac - высококучевые, As - высокослоистые, Sc - слоисто-кучевые, Ns - слоисто-дождевые, Cu - кучевые, Cb - кучево-дождевые. Подробнее классификацию облаков см. в Атласе облаков (PDF).
T - Температура воздуха - температура, измеренная на высоте 2 м над землей.
Td - Температура точки росы - температура, при понижении до которой содержащийся в воздухе водяной пар достигнет насыщения.
f - Относительная влажность воздуха - влажноcть воздуха, измеренная на высоте 2 м над землей.
Te - Эффективная температура - температура, которую ощущает одетый по сезону человек в тени. Характеристика душности погоды. При расчете учитывается влияние влажности воздуха и скорости ветра на теплоощущения человека.
Tes - Эффективная температура на солнце - температура, которую ощущает человек, с поправкой на солнечный нагрев. Характеристика знойности погоды. Зависит от высоты солнца над горизонтом, облачности и скорости ветра. Ночью, в пасмурную погоду, а также при ветре 12 м/с и более поправка равна нулю.
P - Атмосферное давление - приведенное к уровню моря атмосферное давление.
Po - Атмосферное давление - измеренное на уровне метеостанции атмосферное давление.
Tmin - Минимальная температура - минимум температуры воздуха на высоте 2 м над землей.
Tmax - Максимальная температура - максимум температуры воздуха на высоте 2 м над землей.
R - Количество осадков - Количество выпавших осадков за период времени, мм. При наведении курсора мыши на число - период времени, за который выпало указанное количество осадков.
R24 - Количество осадков - Количество выпавших осадков за 24 часа, мм.
S - Снежный покров - Высота снежного покрова, см. При наведении курсора мыши на число - состояние снежного покрова и степень покрытия местности в баллах.